Austin, MN

8:18 PM CDT on May 25, 2017 (GMT -0500)
Austin Municipal

Weather History for KAUM - January, 2014

Change the Weather History Date:

Wednesday, January 22, 2014

  Actual Average Record
Temperature  
Mean Temperature 0 °F -  
Max Temperature 8 °F 20 °F 48 °F (2002)
Min Temperature -11 °F 7 °F -11 °F (2008)
Degree Days  
Heating Degree Days 66    
Moisture  
Dew Point -4 °F    
Average Humidity 78    
Maximum Humidity 92    
Minimum Humidity 71    
Precipitation  
Precipitation 0.00 in - - ()
Sea Level Pressure  
Sea Level Pressure 30.07 in    
Wind  
Wind Speed 14 mph (NW)    
Max Wind Speed 29 mph    
Max Gust Speed 34 mph    
Visibility 6 miles    
Events Snow    
Averages and records for this station are not official NWS values.
T = Trace of Precipitation, MM = Missing Value Source: NWS Daily Summary

Daily Weather History Graph

Daily Weather History Graph

Search for Another Location

Airport or City:

Trip Planner

Search our weather history database for the weather conditions in past years. The results will help you decide how hot, cold, wet, or windy it might be!

Date:

Astronomy

Jan. 22, 2014 Rise Set
Actual Time 7:37 AM CST 5:09 PM CST
Civil Twilight 7:06 AM CST 5:40 PM CST
Nautical Twilight 6:31 AM CST 6:15 PM CST
Astronomical Twilight 5:57 AM CST 6:49 PM CST
Moon 11:56 PM CST (1/22) 10:26 AM CST (1/22)
Length of Visible Light 10h 34m
Length of Day
9h 31m
Waning Gibbous, 65% of the Moon is Illuminated
Jan 22
Waning Gibbous
Jan 23
Last Quarter
Jan 30
New
Feb 6
First Quarter
Feb 14
Full

Hourly Weather History & Observations

Time (CST) Temp. Windchill Dew Point Humidity Pressure Visibility Wind Dir Wind Speed Gust Speed Precip Events Conditions
12:14 AM 5.0 °F -10.0 °F 1.4 °F 85% 29.97 in 10.0 mi SSW 10.4 mph - N/A   Overcast
12:34 AM 5.0 °F -10.0 °F 1.4 °F 85% 29.96 in 10.0 mi SSW 10.4 mph - N/A   Overcast
12:54 AM 5.0 °F -8.1 °F 1.4 °F 85% 29.95 in 10.0 mi SSW 8.1 mph - N/A Snow Light Snow
1:15 AM 6.8 °F -5.9 °F 1.4 °F 79% 29.94 in 10.0 mi SSW 8.1 mph - N/A Snow Light Snow
1:34 AM 6.8 °F -5.9 °F 1.4 °F 79% 29.93 in 7.0 mi SSW 8.1 mph - N/A Snow Light Snow
1:54 AM 6.8 °F -4.8 °F 1.4 °F 79% 29.93 in 5.0 mi SSW 6.9 mph - N/A Snow Light Snow
2:15 AM 6.8 °F -6.9 °F 3.2 °F 85% 29.91 in 5.0 mi SSW 9.2 mph - N/A Snow Light Snow
2:34 AM 6.8 °F -4.8 °F 3.2 °F 85% 29.91 in 10.0 mi SSW 6.9 mph - N/A Snow Light Snow
2:54 AM 6.8 °F -3.5 °F 3.2 °F 85% 29.91 in 5.0 mi SW 5.8 mph - N/A Snow Light Snow
3:15 AM 8.6 °F 0.1 °F 5.0 °F 85% 29.91 in 4.0 mi WSW 4.6 mph - N/A Snow Light Snow
3:34 AM 8.6 °F -3.7 °F 5.0 °F 85% 29.90 in 2.0 mi WSW 8.1 mph - N/A Snow Light Snow
3:54 AM 8.6 °F 0.1 °F 6.8 °F 92% 29.90 in 2.0 mi West 4.6 mph - N/A Snow Light Snow
4:15 AM 8.6 °F -8.3 °F 6.8 °F 92% 29.91 in 4.0 mi NW 15.0 mph 23.0 mph N/A Snow Light Snow
4:34 AM 8.6 °F -8.3 °F 5.0 °F 85% 29.91 in 7.0 mi NW 15.0 mph 20.7 mph N/A Snow Light Snow
4:54 AM 8.6 °F -7.0 °F 3.2 °F 79% 29.92 in 10.0 mi NW 12.7 mph 17.3 mph N/A Snow Light Snow
5:15 AM 8.6 °F -7.0 °F 3.2 °F 79% 29.92 in 10.0 mi NW 12.7 mph 18.4 mph N/A   Overcast
5:34 AM 6.8 °F -9.3 °F 1.4 °F 79% 29.93 in 10.0 mi NW 12.7 mph - N/A   Overcast
5:54 AM 5.0 °F -11.6 °F -0.4 °F 78% 29.93 in 10.0 mi NW 12.7 mph 17.3 mph N/A   Scattered Clouds
6:15 AM 3.2 °F -14.6 °F -0.4 °F 85% 29.94 in 7.0 mi NW 13.8 mph - N/A   Scattered Clouds
6:34 AM 3.2 °F -14.6 °F -0.4 °F 85% 29.94 in 5.0 mi NW 13.8 mph 17.3 mph N/A Snow Light Snow
6:54 AM 3.2 °F -11.3 °F -0.4 °F 85% 29.93 in 10.0 mi NW 9.2 mph - N/A   Mostly Cloudy
7:15 AM 3.2 °F -13.9 °F -0.4 °F 85% 29.95 in 7.0 mi WNW 12.7 mph 19.6 mph N/A Snow Light Snow
7:34 AM 3.2 °F -14.6 °F -0.4 °F 85% 29.94 in 7.0 mi WNW 13.8 mph 19.6 mph N/A Snow Light Snow
7:54 AM 3.2 °F -14.6 °F -0.4 °F 85% 29.94 in 7.0 mi WNW 13.8 mph - N/A   Overcast
8:15 AM 3.2 °F -13.9 °F -0.4 °F 85% 29.95 in 7.0 mi WNW 12.7 mph 18.4 mph N/A   Overcast
8:34 AM 3.2 °F -15.3 °F -0.4 °F 85% 29.95 in 4.0 mi WNW 15.0 mph - N/A Snow Light Snow
8:54 AM 5.0 °F -13.6 °F -0.4 °F 78% 29.96 in 3.0 mi WNW 16.1 mph 19.6 mph N/A Snow Light Snow
9:15 AM 5.0 °F -14.7 °F 1.4 °F 85% 29.96 in 2.0 mi WNW 18.4 mph - N/A Snow Light Snow
9:34 AM 6.8 °F -11.3 °F 1.4 °F 79% 29.96 in 1.5 mi WNW 16.1 mph 25.3 mph N/A Snow Light Snow
9:55 AM 6.8 °F -12.4 °F 1.4 °F 79% 29.97 in 1.8 mi NW 18.4 mph 24.2 mph N/A   Overcast
10:14 AM 6.8 °F -10.7 °F 3.2 °F 85% 29.96 in 2.5 mi NW 15.0 mph 20.7 mph N/A   Overcast
10:34 AM 8.6 °F -10.0 °F 3.2 °F 79% 29.97 in 1.8 mi NW 18.4 mph 26.5 mph N/A   Haze
10:55 AM 8.6 °F -10.0 °F 1.4 °F 73% 29.98 in 1.0 mi NNW 18.4 mph 29.9 mph N/A   Haze
11:14 AM 6.8 °F -13.8 °F 1.4 °F 79% 29.98 in 1.2 mi NW 21.9 mph 29.9 mph N/A   Haze
11:34 AM 5.0 °F -17.9 °F -0.4 °F 78% 29.99 in 1.2 mi NNW 26.5 mph 34.5 mph N/A   Haze
11:55 AM 5.0 °F -17.1 °F -2.2 °F 72% 29.99 in 2.0 mi NW 24.2 mph 31.1 mph N/A   Haze
12:14 PM 3.2 °F -18.1 °F -2.2 °F 78% 29.99 in 2.5 mi NW 20.7 mph 27.6 mph N/A   Haze
12:34 PM 3.2 °F -18.1 °F -2.2 °F 78% 30.00 in 1.0 mi NW 20.7 mph 32.2 mph N/A   Haze
12:55 PM 3.2 °F -21.1 °F -4.0 °F 72% 30.01 in 2.0 mi NW 28.8 mph 32.2 mph N/A   Haze
1:14 PM 3.2 °F -17.1 °F -4.0 °F 72% 30.01 in 1.8 mi NW 18.4 mph 27.6 mph N/A   Haze
1:34 PM 3.2 °F -17.6 °F -4.0 °F 72% 30.02 in 2.5 mi NW 19.6 mph 32.2 mph N/A   Haze
1:55 PM 3.2 °F -19.0 °F -2.2 °F 78% 30.02 in 1.8 mi NNW 23.0 mph 29.9 mph N/A   Haze
2:14 PM 3.2 °F -19.5 °F -4.0 °F 72% 30.03 in 1.8 mi NW 24.2 mph 32.2 mph N/A   Haze
2:34 PM 1.4 °F -21.4 °F -4.0 °F 78% 30.04 in 1.0 mi NW 23.0 mph 32.2 mph N/A   Haze
2:55 PM 1.4 °F -20.5 °F -4.0 °F 78% 30.06 in 1.5 mi NW 20.7 mph 28.8 mph N/A   Haze
3:14 PM 1.4 °F -21.9 °F -4.0 °F 78% 30.07 in 1.2 mi NW 24.2 mph 31.1 mph N/A   Haze
3:34 PM 1.4 °F -22.7 °F -5.8 °F 72% 30.10 in 1.5 mi NW 26.5 mph 32.2 mph N/A   Haze
3:55 PM -0.4 °F -24.3 °F -5.8 °F 78% 30.11 in 1.5 mi NW 24.2 mph 32.2 mph N/A   Haze
4:14 PM -0.4 °F -21.7 °F -7.6 °F 72% 30.13 in 2.0 mi NW 18.4 mph 29.9 mph N/A   Haze
4:35 PM -2.2 °F -24.7 °F -9.4 °F 71% 30.14 in 3.0 mi NW 19.6 mph 27.6 mph N/A   Haze
4:54 PM -2.2 °F -25.7 °F -7.6 °F 78% 30.16 in 1.8 mi NW 21.9 mph 31.1 mph N/A   Haze
5:15 PM -2.2 °F -25.7 °F -9.4 °F 71% 30.18 in 5.0 mi NW 21.9 mph 29.9 mph N/A   Haze
5:34 PM -2.2 °F -24.1 °F -9.4 °F 71% 30.18 in 5.0 mi NW 18.4 mph 27.6 mph N/A   Haze
5:54 PM -2.2 °F -25.2 °F -9.4 °F 71% 30.19 in 4.0 mi NNW 20.7 mph 26.5 mph N/A   Haze
6:15 PM -4.0 °F -24.5 °F -9.4 °F 78% 30.21 in 10.0 mi NNW 15.0 mph 26.5 mph N/A   Scattered Clouds
6:34 PM -4.0 °F -24.5 °F -11.2 °F 71% 30.23 in 10.0 mi NNW 15.0 mph 21.9 mph N/A   Scattered Clouds
6:54 PM -4.0 °F -22.1 °F -11.2 °F 71% 30.25 in 10.0 mi NNW 11.5 mph 20.7 mph N/A   Clear
7:15 PM -5.8 °F -26.0 °F -13.0 °F 71% 30.26 in 10.0 mi NNW 13.8 mph 19.6 mph N/A   Clear
7:34 PM -5.8 °F -28.2 °F -13.0 °F 71% 30.27 in 10.0 mi NW 17.3 mph - N/A   Clear
7:54 PM -7.6 °F -30.5 °F -13.0 °F 77% 30.28 in 10.0 mi NW 17.3 mph 24.2 mph N/A   Clear
8:15 PM -7.6 °F -30.5 °F -13.0 °F 77% 30.29 in 10.0 mi NW 17.3 mph 26.5 mph N/A   Clear
8:34 PM -7.6 °F -31.1 °F -14.8 °F 71% 30.30 in 10.0 mi NW 18.4 mph 24.2 mph N/A   Clear
8:55 PM -7.6 °F -31.7 °F -14.8 °F 71% 30.31 in 10.0 mi NW 19.6 mph 25.3 mph N/A   Clear
9:15 PM -7.6 °F -30.5 °F -14.8 °F 71% 30.32 in 10.0 mi NW 17.3 mph 23.0 mph N/A   Clear
9:34 PM -7.6 °F -31.7 °F -14.8 °F 71% 30.33 in 10.0 mi NW 19.6 mph - N/A   Clear
9:55 PM -7.6 °F -30.5 °F -14.8 °F 71% 30.34 in 10.0 mi NW 17.3 mph - N/A   Clear
10:14 PM -9.4 °F -32.1 °F -16.6 °F 71% 30.35 in 10.0 mi NW 16.1 mph 24.2 mph N/A   Clear
10:34 PM -9.4 °F -31.4 °F -16.6 °F 71% 30.36 in 10.0 mi NNW 15.0 mph 21.9 mph N/A   Clear
10:55 PM -9.4 °F -31.4 °F -16.6 °F 71% 30.37 in 10.0 mi NW 15.0 mph 21.9 mph N/A   Clear
11:14 PM -9.4 °F -31.4 °F -16.6 °F 71% 30.38 in 10.0 mi NW 15.0 mph 20.7 mph N/A   Clear
11:34 PM -9.4 °F -32.1 °F -16.6 °F 71% 30.39 in 10.0 mi NW 16.1 mph 21.9 mph N/A   Clear
11:55 PM -11.2 °F -33.7 °F -16.6 °F 77% 30.40 in 10.0 mi NW 15.0 mph 20.7 mph N/A   Clear